Flag for Canada Weather past 2 weeks in Inuvik, Northwest Territories, Canada

Now
48 °F

Scattered showers. Passing clouds.


Feels Like: 46 °F
Forecast: 42 / 62 °F
Wind: 5 mph from East

Location: Inuvik

Current Time: Aug 27, 2014 at 2:53:29 AM

Latest Report: Aug 27, 2014 at 2:00 AM


Visibility: 15 mi

Pressure: 29.79 "Hg

Humidity: 87%

Dew point: 45 °F

Location of InuvikLocation

Historic Weather in Inuvik — Graph

°F

Inuvik temperature yesterday

Maximum temperature yesterday: 54 °F (at 6:00 PM)
Minimum temperature yesterday: 37 °F (at 8:00 AM)
Average temperature yesterday: 44 °F

Past Weeks' High & Low Weather Summary

 TemperatureHumidityPressure
High68 °F (Aug 12, 4:00 PM)100% (Aug 14, 4:00 AM)30.21 "Hg (Aug 14, 4:00 AM)
Low37 °F (Aug 26, 8:00 AM)40% (Aug 12, 1:00 PM)29.63 "Hg (Aug 18, 3:00 AM)
Average52 °F78%29.90 "Hg
* Reported Aug 12 1:00 AM — Aug 27 1:00 AM, Inuvik, Weather by CustomWeather, © 2014

Note: Actual official high and low records may vary slightly from our data, if they occured in-between our weather recording intervals... More about our weather records

Advertising

Inuvik weather history for previous 24 hours

 ConditionsComfort  
Time TempWeatherWind HumidityBarometerVisibility
1:00 AM
Aug 27
50 °FScattered showers. Partly sunny.7 mph76%29.80 "Hg15 mi
12:00 AM50 °FScattered showers. Partly sunny.7 mph76%29.79 "Hg15 mi
11:00 PM
Aug 26
50 °FScattered showers. Partly sunny.6 mph76%29.79 "Hg15 mi
10:00 PM52 °FScattered showers. Partly sunny.2 mph72%29.79 "Hg15 mi
9:00 PM54 °FScattered showers. Partly sunny.6 mph67%29.79 "Hg15 mi
8:00 PM54 °FScattered showers. Partly sunny.8 mph63%29.79 "Hg15 mi
7:00 PM54 °FScattered showers. Broken clouds.7 mph63%29.79 "Hg15 mi
6:00 PM54 °FBroken clouds.6 mph67%29.79 "Hg15 mi
5:00 PM52 °FPartly sunny.5 mph72%29.80 "Hg15 mi
4:00 PM52 °FPartly sunny.7 mph72%29.80 "Hg15 mi
3:00 PM48 °FPartly sunny.5 mph76%29.81 "Hg15 mi
2:00 PM46 °FOvercast.6 mph76%29.81 "Hg15 mi
1:00 PM45 °FPartly sunny.7 mph76%29.81 "Hg15 mi
12:00 PM43 °FPartly sunny.6 mph87%29.81 "Hg15 mi
11:00 AM41 °FMore clouds than sun.7 mph87%29.82 "Hg15 mi
10:45 AM39 °FMore clouds than sun.8 mph93%29.82 "Hg15 mi
10:00 AM39 °FLow clouds.7 mph93%29.82 "Hg10 mi
9:00 AM37 °FFog.8 mph100%29.82 "Hg1 mi
8:49 AM37 °FFog.7 mph100%29.82 "Hg1 mi
8:00 AM37 °FFog.7 mph100%29.82 "Hg0 mi
7:00 AM39 °FFog.7 mph93%29.82 "Hg1 mi
6:00 AM39 °FLow clouds.7 mph93%29.83 "Hg10 mi
5:00 AM39 °FLow clouds.8 mph93%29.83 "Hg10 mi
4:46 AM39 °FLow clouds.8 mph100%29.82 "Hg10 mi
4:00 AM39 °FDrizzle. Fog.7 mph100%29.82 "Hg2 mi
3:00 AM39 °FDrizzle. Fog.5 mph100%29.83 "Hg1 mi
2:00 AM41 °FDrizzle. Fog.5 mph93%29.82 "Hg3 mi
Weather by CustomWeather, © 2014

See weather overviewHow to use our weather pages